Find OneWeb SL0575

NORAD ID: 56064 Int'l Des: 2023-043 Owner: ONEWEBN Country: UK Constellation: oneweb operational
又名: ONEWEB-0575 spacetrack, celestrak
LEOCIRCULARPOLARONEWEB_TYPE

当前视图

正在加载3D地球...

About OneWeb SL0575

OneWeb SL0575 (NORAD 56064) is a oneweb constellation satellite launched Mar 26, 2023 by ONEWEBN of UK. It operates in LEO, CIRCULAR, POLAR, ONEWEB_TYPE orbit with a mass of 148.00 kg.

即将过境

Passes for default location (London). Set your location on the main map for personalized predictions.

高度历史

Loading altitude history...

两行轨道根数

1 56064U 23043U 26263.15278593 .00000127 00000-0 29891-3 0 9994
2 56064 87.9156 209.9128 0002225 81.5671 278.5712 13.16592737171464
Epoch: Sep 20, 2026 • Age: 13 hours

当前状态

高度 1209.0 km
远地点 / 近地点 N/A
速度 7.25 km/s
星下点 -28.68°S, 35.24°W
发射日期 Mar 26, 2023
运行时间 3.4 years
类型 internet

技术详情

分类 Payload
质量 148.00 kg
干质量 140.00 kg
长度 1.30 m
直径 1.00 m
跨度 5.00 m
形状 ? Trapezoid+2 pan
制造商 ONEWUS
平台类型 ARROW
阶段状态 In Orbit
所有者/国家 ONEWEBN/UK

Most Searched